This is the latest recevied weather packets stored in our database for station/object SP3ZBZ-13. If no packets are shown the sender has not sent any weather packets the latest 10 day(s).
| Time | Temp. | Humidity | Pressure | Rain* | Wind** | Luminosity | Snow |
|---|---|---|---|---|---|---|---|
| 1788597687 | 17.22° C | 69% | 1007.5 hPa | 5.33 mm | - | 516 W/m² | - |
| 1788596786 | 16.67° C | 71% | 1007.5 hPa | 5.33 mm | - | 502 W/m² | - |
| 1788595884 | 16.67° C | 71% | 1007.4 hPa | 5.33 mm | - | 175 W/m² | - |
| 1788594983 | 16.11° C | 73% | 1007.4 hPa | 5.33 mm | - | 108 W/m² | - |
| 1788594082 | 16.67° C | 72% | 1007.1 hPa | 5.33 mm | - | 322 W/m² | - |
| 1788593181 | 16.11° C | 74% | 1007.1 hPa | 5.33 mm | - | 281 W/m² | - |
| 1788592281 | 16.11° C | 76% | 1006.9 hPa | 5.33 mm | - | 327 W/m² | - |
| 1788591379 | 16.11° C | 76% | 1006.7 hPa | 5.33 mm | - | 238 W/m² | - |
| 1788590478 | 15.56° C | 77% | 1006.6 hPa | 5.33 mm | - | 124 W/m² | - |
| 1788589577 | 15.56° C | 77% | 1006.3 hPa | 5.33 mm | - | 101 W/m² | - |
| 1788588676 | 15.56° C | 78% | 1006.2 hPa | 5.33 mm | - | 110 W/m² | - |
| 1788587775 | 15° C | 81% | 1006 hPa | 5.33 mm | - | 79 W/m² | - |
| 1788586874 | 15° C | 82% | 1005.8 hPa | 5.33 mm | - | 62 W/m² | - |
| 1788585973 | 14.44° C | 83% | 1005.7 hPa | 5.33 mm | - | 48 W/m² | - |
| 1788585072 | 14.44° C | 85% | 1005.5 hPa | 5.33 mm | - | 45 W/m² | - |
| 1788584171 | 14.44° C | 85% | 1005.4 hPa | 5.33 mm | - | 31 W/m² | - |
| 1788583270 | 14.44° C | 85% | 1005.2 hPa | 5.33 mm | - | 19 W/m² | - |
| 1788582369 | 14.44° C | 85% | 1005 hPa | 5.33 mm | - | 10 W/m² | - |
| 1788581468 | 14.44° C | 86% | 1005 hPa | 5.33 mm | - | 2 W/m² | - |
| 1788580567 | 13.89° C | 85% | 1004.9 hPa | 5.33 mm | - | 1 W/m² | - |
| 1788579666 | 14.44° C | 83% | 1004.6 hPa | 5.33 mm | - | - | - |
| 1788578765 | 14.44° C | 83% | 1004.6 hPa | 5.33 mm | - | - | - |
| 1788577864 | 13.89° C | 83% | 1004.4 hPa | 5.33 mm | - | - | - |
| 1788576963 | 14.44° C | 81% | 1004.4 hPa | 5.33 mm | - | - | - |
| 1788576062 | 14.44° C | 81% | 1004.5 hPa | 5.33 mm | - | - | - |
* Rain latest 24 hours (hover to see other rain measurements)
** Current wind speed in m/s (hover to see current wind gust speed)